When you browse on this site, cookies collect data to enhance your experience and personalize the content and advertising you see.
Visit our Privacy Policy to learn more. By continuing to use the site, you agree to this use of cookies and data.
  • în România
  • Lista ţărilor
  • Pe 7 zile
  • Temperatura apei
  • Hartă satelitară
  • Meteo pe hartă
  • Widget-uri
  • user-avatar
    Intrare

    Meteo pe oră la Búðardalur

    Astăzi, 23 Ianuarie, Miercuri

    Timp Temperatura Precipitaţii Vânt Presiune Umiditate
    00:00 -6°C° 0.1 mm 3 m/s 746 mmHg 87%
    01:00 -6°C° 0.1 mm 3 m/s 746 mmHg 87%
    02:00 -6°C° 0.1 mm 3 m/s 746 mmHg 88%
    03:00 -6°C° 0.2 mm 3 m/s 747 mmHg 88%
    04:00 -6°C° 0.2 mm 3 m/s 747 mmHg 89%
    05:00 -5°C° 0.2 mm 3 m/s 747 mmHg 89%
    06:00 -6°C° 0.2 mm 3 m/s 748 mmHg 89%
    07:00 -5°C° 0.2 mm 2 m/s 748 mmHg 89%
    08:00 -5°C° 0.2 mm 2 m/s 749 mmHg 90%
    09:00 -5°C° 0 mm 2 m/s 750 mmHg 89%
    10:00 -5°C° 0 mm 2 m/s 750 mmHg 89%
    11:00 -4°C° 0 mm 1 m/s 751 mmHg 88%
    12:00 -4°C° 0 mm 1 m/s 752 mmHg 88%
    13:00 -4°C° 0 mm 1 m/s 752 mmHg 88%
    14:00 -4°C° 0 mm 1 m/s 753 mmHg 87%
    15:00 -4°C° 0 mm 1 m/s 753 mmHg 88%
    16:00 -6°C° 0 mm 1 m/s 754 mmHg 88%
    17:00 -6°C° 0 mm 1 m/s 754 mmHg 88%
    18:00 -6°C° 0 mm 1 m/s 754 mmHg 88%
    19:00 -6°C° 0 mm 1 m/s 755 mmHg 88%
    20:00 -6°C° 0 mm 1 m/s 755 mmHg 87%
    21:00 -6°C° 0 mm 1 m/s 755 mmHg 86%
    22:00 -6°C° 0 mm 1 m/s 755 mmHg 85%
    23:00 -6°C° 0 mm 1 m/s 755 mmHg 84%

    Mâine, 24 Ianuarie, Joi

    Timp Temperatura Precipitaţii Vânt Presiune Umiditate
    00:00 -7°C° 0 mm 2 m/s 754 mmHg 81%
    01:00 -7°C° 0 mm 2 m/s 754 mmHg 79%
    02:00 -7°C° 0 mm 2 m/s 754 mmHg 76%
    03:00 -7°C° 0 mm 2 m/s 754 mmHg 75%
    04:00 -6°C° 0 mm 2 m/s 754 mmHg 74%
    05:00 -6°C° 0 mm 2 m/s 753 mmHg 73%
    06:00 -6°C° 0 mm 3 m/s 753 mmHg 74%
    07:00 -6°C° 0 mm 3 m/s 752 mmHg 75%
    08:00 -6°C° 0 mm 3 m/s 752 mmHg 77%
    09:00 -6°C° 0.1 mm 3 m/s 751 mmHg 79%
    10:00 -6°C° 0.1 mm 3 m/s 751 mmHg 80%
    11:00 -5°C° 0.1 mm 2 m/s 750 mmHg 82%
    12:00 -5°C° 0.8 mm 3 m/s 749 mmHg 87%
    13:00 -5°C° 0.8 mm 4 m/s 748 mmHg 91%
    14:00 -5°C° 0.8 mm 4 m/s 747 mmHg 96%
    15:00 -5°C° 1.1 mm 4 m/s 747 mmHg 95%
    16:00 -4°C° 1.1 mm 4 m/s 746 mmHg 93%
    17:00 -2°C° 1.1 mm 3 m/s 745 mmHg 92%
    18:00 -4°C° 0 mm 3 m/s 745 mmHg 91%
    19:00 -4°C° 0 mm 3 m/s 745 mmHg 90%
    20:00 -3°C° 0 mm 2 m/s 744 mmHg 89%
    21:00 -2°C° 0.1 mm 2 m/s 744 mmHg 90%
    22:00 -2°C° 0.1 mm 2 m/s 744 mmHg 91%
    23:00 -2°C° 0.1 mm 2 m/s 744 mmHg 91%

    Poimâine, 25 Ianuarie, Vineri

    Timp Temperatura Precipitaţii Vânt Presiune Umiditate
    00:00 -2°C° 0.2 mm 2 m/s 744 mmHg 91%
    01:00 -2°C° 0.2 mm 2 m/s 745 mmHg 91%
    02:00 -2°C° 0.2 mm 2 m/s 745 mmHg 91%
    03:00 -3°C° 0 mm 2 m/s 745 mmHg 91%
    04:00 -1°C° 0 mm 1 m/s 746 mmHg 91%
    05:00 -2°C° 0 mm 1 m/s 746 mmHg 91%
    06:00 -2°C° 0 mm 1 m/s 747 mmHg 90%
    07:00 -2°C° 0 mm 1 m/s 747 mmHg 89%
    08:00 -3°C° 0 mm 1 m/s 748 mmHg 89%
    09:00 -3°C° 0 mm 1 m/s 748 mmHg 88%
    10:00 -3°C° 0 mm 1 m/s 748 mmHg 87%
    11:00 -3°C° 0 mm 1 m/s 749 mmHg 87%
    12:00 -3°C° 0 mm 1 m/s 749 mmHg 87%
    13:00 -2°C° 0 mm 1 m/s 750 mmHg 86%
    14:00 -2°C° 0 mm 1 m/s 750 mmHg 86%
    15:00 -4°C° 0.1 mm 2 m/s 750 mmHg 88%
    16:00 -5°C° 0.1 mm 3 m/s 751 mmHg 89%
    17:00 -4°C° 0.1 mm 4 m/s 751 mmHg 91%
    18:00 -5°C° 0.2 mm 5 m/s 752 mmHg 88%
    19:00 -6°C° 0.2 mm 7 m/s 752 mmHg 86%
    20:00 -5°C° 0.2 mm 8 m/s 753 mmHg 83%
    21:00 -5°C° 0 mm 8 m/s 754 mmHg 81%
    22:00 -6°C° 0 mm 7 m/s 754 mmHg 79%
    23:00 -6°C° 0 mm 7 m/s 755 mmHg 77%

    26 Ianuarie, Sâmbătă

    Timp Temperatura Precipitaţii Vânt Presiune Umiditate
    00:00 -6°C° 0 mm 6 m/s 755 mmHg 77%
    01:00 -6°C° 0 mm 6 m/s 756 mmHg 77%
    02:00 -6°C° 0 mm 5 m/s 757 mmHg 77%
    03:00 -7°C° 0 mm 5 m/s 757 mmHg 77%
    04:00 -7°C° 0 mm 4 m/s 758 mmHg 76%
    05:00 -7°C° 0 mm 4 m/s 759 mmHg 76%
    06:00 -7°C° 0 mm 3 m/s 759 mmHg 77%
    07:00 -7°C° 0 mm 3 m/s 760 mmHg 77%
    08:00 -6°C° 0 mm 2 m/s 761 mmHg 78%
    09:00 -6°C° 0 mm 2 m/s 761 mmHg 79%
    10:00 -6°C° 0 mm 2 m/s 762 mmHg 80%
    11:00 -6°C° 0 mm 2 m/s 762 mmHg 81%
    12:00 -4°C° 0 mm 1 m/s 762 mmHg 82%
    13:00 -6°C° 0 mm 1 m/s 762 mmHg 83%
    14:00 -6°C° 0 mm 1 m/s 762 mmHg 84%
    15:00 -6°C° 0 mm 1 m/s 763 mmHg 85%
    16:00 -7°C° 0 mm 1 m/s 763 mmHg 86%
    17:00 -7°C° 0 mm 1 m/s 763 mmHg 86%
    18:00 -8°C° 0 mm 1 m/s 763 mmHg 86%
    19:00 -8°C° 0 mm 1 m/s 763 mmHg 85%
    20:00 -8°C° 0 mm 1 m/s 763 mmHg 85%
    21:00 -8°C° 0 mm 1 m/s 763 mmHg 83%
    22:00 -8°C° 0 mm 1 m/s 762 mmHg 81%
    23:00 -9°C° 0 mm 1 m/s 762 mmHg 80%

    27 Ianuarie, Duminică

    Timp Temperatura Precipitaţii Vânt Presiune Umiditate
    00:00 -9°C° 0 mm 1 m/s 762 mmHg 77%
    01:00 -9°C° 0 mm 1 m/s 762 mmHg 75%
    02:00 -9°C° 0 mm 1 m/s 762 mmHg 72%
    03:00 -9°C° 0 mm 1 m/s 762 mmHg 70%
    04:00 -9°C° 0 mm 1 m/s 762 mmHg 67%
    05:00 -9°C° 0 mm 1 m/s 761 mmHg 64%
    06:00 -9°C° 0 mm 1 m/s 761 mmHg 61%
    07:00 -9°C° 0 mm 1 m/s 761 mmHg 59%
    08:00 -9°C° 0 mm 1 m/s 761 mmHg 56%
    09:00 -10°C° 0 mm 2 m/s 761 mmHg 54%
    10:00 -9°C° 0 mm 2 m/s 761 mmHg 53%
    11:00 -9°C° 0 mm 2 m/s 761 mmHg 51%
    12:00 -9°C° 0 mm 2 m/s 761 mmHg 52%
    13:00 -9°C° 0 mm 3 m/s 760 mmHg 54%
    14:00 -9°C° 0 mm 3 m/s 760 mmHg 55%
    15:00 -8°C° 0 mm 3 m/s 759 mmHg 62%
    16:00 -8°C° 0 mm 3 m/s 759 mmHg 69%
    17:00 -9°C° 0 mm 4 m/s 758 mmHg 75%
    18:00 -7°C° 0.2 mm 4 m/s 757 mmHg 81%
    19:00 -6°C° 0.2 mm 5 m/s 757 mmHg 86%
    20:00 -5°C° 0.2 mm 6 m/s 756 mmHg 92%
    21:00 -4°C° 0.3 mm 7 m/s 756 mmHg 88%
    22:00 -4°C° 0.3 mm 8 m/s 756 mmHg 85%
    23:00 -3°C° 0.3 mm 9 m/s 755 mmHg 82%

    28 Ianuarie, Luni

    Timp Temperatura Precipitaţii Vânt Presiune Umiditate
    00:00 -4°C° 0.2 mm 10 m/s 755 mmHg 83%
    01:00 -4°C° 0.2 mm 10 m/s 755 mmHg 84%
    02:00 -6°C° 0.2 mm 11 m/s 754 mmHg 85%
    03:00 -7°C° 0.3 mm 12 m/s 754 mmHg 83%
    04:00 -7°C° 0.3 mm 12 m/s 753 mmHg 81%
    05:00 -9°C° 0.3 mm 13 m/s 752 mmHg 80%
    06:00 -9°C° 0.4 mm 13 m/s 752 mmHg 81%
    07:00 -10°C° 0.4 mm 13 m/s 751 mmHg 82%
    08:00 -10°C° 0.4 mm 13 m/s 751 mmHg 83%
    09:00 -10°C° 0.5 mm 13 m/s 750 mmHg 82%
    10:00 -11°C° 0.5 mm 13 m/s 750 mmHg 81%
    11:00 -11°C° 0.5 mm 13 m/s 750 mmHg 80%
    12:00 -11°C° 0.6 mm 13 m/s 749 mmHg 81%
    13:00 -11°C° 0.6 mm 12 m/s 748 mmHg 82%
    14:00 -11°C° 0.6 mm 12 m/s 748 mmHg 83%
    15:00 -11°C° 0.6 mm 12 m/s 747 mmHg 83%
    16:00 -11°C° 0.6 mm 11 m/s 746 mmHg 83%
    17:00 -11°C° 0.6 mm 11 m/s 746 mmHg 83%
    18:00 -11°C° 0.3 mm 12 m/s 745 mmHg 82%
    19:00 -11°C° 0.3 mm 12 m/s 745 mmHg 81%
    20:00 -11°C° 0.3 mm 13 m/s 744 mmHg 79%
    21:00 -11°C° 0.4 mm 12 m/s 744 mmHg 77%
    22:00 -11°C° 0.4 mm 11 m/s 743 mmHg 75%
    23:00 -9°C° 0.4 mm 11 m/s 743 mmHg 73%
    Arată mai mult